| time (UTC) | temp F | wind direction | speed MPH | gust MPH | rain 1hr in | rain 24hr in | rain mn in | humidity % | barometer mb |
| 20260503233036 | 75 | 360 | 5.0 | 12.0 | 0.00 | 0.00 | 0.00 | 45 | 1010.8 |
| 20260503231532 | 75 | 331 | 5.0 | 16.0 | 0.00 | 0.00 | 0.00 | 45 | 1010.9 |
| 20260503230043 | 75 | 355 | 6.0 | 14.0 | 0.00 | 0.00 | 0.00 | 44 | 1011.0 |
| 20260503224537 | 75 | 303 | 4.0 | 15.0 | 0.00 | 0.00 | 0.00 | 44 | 1011.2 |
| 20260503223036 | 75 | 292 | 3.0 | 15.0 | 0.00 | 0.00 | 0.00 | 45 | 1011.5 |
| 20260503221543 | 75 | 10 | 5.0 | 15.0 | 0.00 | 0.00 | 0.00 | 42 | 1011.6 |
| 20260503220038 | 75 | 44 | 4.0 | 12.0 | 0.00 | 0.00 | 0.00 | 46 | 1011.7 |
| 20260503214546 | 74 | 38 | 7.0 | 14.0 | 0.00 | 0.00 | 0.00 | 48 | 1011.9 |
| 20260503213043 | 74 | 309 | 4.0 | 9.0 | 0.00 | 0.00 | 0.00 | 49 | 1012.0 |
| 20260503211535 | 74 | 355 | 3.0 | 9.0 | 0.00 | 0.00 | 0.00 | 44 | 1012.2 |
| 20260503210036 | 74 | 352 | 4.0 | 11.0 | 0.00 | 0.00 | 0.00 | 43 | 1012.2 |
| 20260503204539 | 73 | 311 | 3.0 | 10.0 | 0.00 | 0.00 | 0.00 | 45 | 1012.4 |
| 20260503203037 | 72 | 290 | 3.0 | 11.0 | 0.00 | 0.00 | 0.00 | 47 | 1012.6 |
| 20260503201538 | 72 | 277 | 4.0 | 11.0 | 0.00 | 0.00 | 0.00 | 47 | 1012.9 |
| 20260503200037 | 72 | 311 | 4.0 | 10.0 | 0.00 | 0.00 | 0.00 | 48 | 1013.0 |
| 20260503194540 | 72 | 304 | 4.0 | 13.0 | 0.00 | 0.00 | 0.00 | 48 | 1013.2 |
| 20260503193035 | 72 | 309 | 4.0 | 13.0 | 0.00 | 0.00 | 0.00 | 48 | 1013.3 |
| 20260503191540 | 71 | 352 | 3.0 | 13.0 | 0.00 | 0.00 | 0.00 | 51 | 1013.6 |
| 20260503190043 | 70 | 277 | 4.0 | 10.0 | 0.00 | 0.00 | 0.00 | 55 | 1013.7 |
| 20260503184538 | 68 | 326 | 3.0 | 9.0 | 0.00 | 0.00 | 0.00 | 61 | 1013.8 |
| 20260503183040 | 67 | 289 | 4.0 | 11.0 | 0.00 | 0.00 | 0.00 | 62 | 1014.0 |
| 20260503181556 | 66 | 317 | 3.0 | 11.0 | 0.00 | 0.00 | 0.00 | 63 | 1014.1 |
| 20260503180047 | 65 | 25 | 3.0 | 11.0 | 0.00 | 0.00 | 0.00 | 64 | 1014.2 |
| 20260503174537 | 65 | 294 | 2.0 | 9.0 | 0.00 | 0.00 | 0.00 | 65 | 1014.3 |
| 20260503173036 | 64 | 331 | 4.0 | 9.0 | 0.00 | 0.00 | 0.00 | 65 | 1014.3 |
| 20260503171534 | 64 | 13 | 3.0 | 9.0 | 0.00 | 0.00 | 0.00 | 67 | 1014.3 |
| 20260503081535 | 57 | 0 | 0.0 | 0.0 | 0.00 | 0.00 | 0.00 | 69 | 1014.6 |
| 20260503071534 | 58 | 0 | 0.0 | 0.0 | 0.00 | 0.00 | 0.00 | 67 | 1014.5 |
| 20260503054540 | 60 | 0 | 0.0 | 1.0 | 0.00 | 0.00 | 0.00 | 63 | 1014.4 |
| 20260503053036 | 61 | 0 | 0.0 | 0.0 | 0.00 | 0.00 | 0.00 | 62 | 1014.3 |
| 20260503051536 | 62 | 0 | 0.0 | 1.0 | 0.00 | 0.00 | 0.00 | 60 | 1014.4 |
| 20260503050036 | 63 | 0 | 0.0 | 3.0 | 0.00 | 0.00 | 0.00 | 57 | 1014.3 |
| 20260503044558 | 65 | 0 | 0.0 | 3.0 | 0.00 | 0.00 | 0.00 | 54 | 1014.2 |
| 20260503043041 | 65 | 26 | 1.0 | 8.0 | 0.00 | 0.00 | 0.00 | 53 | 1014.1 |
| 20260503041537 | 65 | 38 | 1.0 | 4.0 | 0.00 | 0.00 | 0.00 | 55 | 1013.9 |
| 20260503040046 | 65 | 35 | 2.0 | 6.0 | 0.00 | 0.00 | 0.00 | 55 | 1013.7 |
| 20260503034535 | 64 | 47 | 2.0 | 8.0 | 0.00 | 0.00 | 0.00 | 57 | 1013.5 |
| 20260503033036 | 64 | 45 | 2.0 | 10.0 | 0.00 | 0.00 | 0.00 | 58 | 1013.4 |
| 20260503031540 | 65 | 65 | 4.0 | 11.0 | 0.00 | 0.00 | 0.00 | 58 | 1013.3 |
| 20260503030038 | 65 | 36 | 4.0 | 9.0 | 0.00 | 0.00 | 0.00 | 58 | 1013.2 |
| 20260503024539 | 66 | 22 | 1.0 | 8.0 | 0.00 | 0.00 | 0.00 | 58 | 1013.1 |
| 20260503023047 | 66 | 5 | 3.0 | 12.0 | 0.00 | 0.00 | 0.00 | 57 | 1013.1 |
| 20260503021549 | 67 | 352 | 3.0 | 8.0 | 0.00 | 0.00 | 0.00 | 56 | 1013.1 |
| 20260503020038 | 69 | 30 | 2.0 | 12.0 | 0.00 | 0.00 | 0.00 | 54 | 1013.1 |
| 20260503014543 | 70 | 348 | 3.0 | 11.0 | 0.00 | 0.00 | 0.00 | 52 | 1013.2 |
| 20260503013037 | 71 | 27 | 2.0 | 11.0 | 0.00 | 0.00 | 0.00 | 50 | 1013.3 |
| 20260503011536 | 70 | 346 | 2.0 | 12.0 | 0.00 | 0.00 | 0.00 | 50 | 1013.2 |
| 20260503010040 | 70 | 350 | 5.0 | 13.0 | 0.00 | 0.00 | 0.00 | 47 | 1013.2 |
| 20260503004537 | 70 | 329 | 6.0 | 14.0 | 0.00 | 0.00 | 0.00 | 47 | 1013.4 |
| 20260503003039 | 70 | 352 | 3.0 | 15.0 | 0.00 | 0.00 | 0.00 | 51 | 1013.5 |
| 20260503001538 | 69 | 352 | 6.0 | 13.0 | 0.00 | 0.00 | 0.00 | 50 | 1013.6 |
| 20260503000035 | 69 | 63 | 5.0 | 14.0 | 0.00 | 0.00 | 0.00 | 51 | 1013.6 |
| 20260502234548 | 69 | 46 | 6.0 | 19.0 | 0.00 | 0.00 | 0.00 | 53 | 1013.8 |